When you browse on this site, cookies collect data to enhance your experience and personalize the content and advertising you see.
Visit our Privacy Policy to learn more. By continuing to use the site, you agree to this use of cookies and data.
  • en France
  • Liste des pays
  • À 7 jours
  • Température de l'eau
  • Carte météo
  • Widgets météo
  • user-avatar
    Se connecter

    Météo par heure à Hartford

    Ce jour, 13 Décembre, Vendredi

    Heure Température Précipitation Vent Pression Humidité
    00:00 +5°C° 0.4 mm 2 m/s 723 mmHg 94%
    01:00 +4°C° 1.3 mm 3 m/s 724 mmHg 94%
    02:00 +5°C° 1.3 mm 4 m/s 724 mmHg 94%
    03:00 +5°C° 1.3 mm 5 m/s 724 mmHg 94%
    04:00 +4°C° 0.9 mm 6 m/s 725 mmHg 91%
    05:00 +4°C° 0.9 mm 7 m/s 726 mmHg 88%
    06:00 +4°C° 0.9 mm 7 m/s 727 mmHg 85%
    07:00 +4°C° 0.3 mm 7 m/s 727 mmHg 84%
    08:00 +4°C° 0.3 mm 8 m/s 728 mmHg 83%
    09:00 +4°C° 0.3 mm 8 m/s 728 mmHg 82%
    10:00 +4°C° 0.3 mm 8 m/s 729 mmHg 84%
    11:00 +4°C° 0.3 mm 7 m/s 729 mmHg 85%
    12:00 +4°C° 0.3 mm 7 m/s 730 mmHg 87%
    13:00 +5°C° 0.4 mm 7 m/s 730 mmHg 85%
    14:00 +5°C° 0.4 mm 7 m/s 730 mmHg 83%
    15:00 +5°C° 0.4 mm 8 m/s 730 mmHg 80%
    16:00 +5°C° 0.1 mm 7 m/s 731 mmHg 80%
    17:00 +4°C° 0.1 mm 7 m/s 731 mmHg 79%
    18:00 +4°C° 0.1 mm 7 m/s 732 mmHg 78%
    19:00 +3°C° 0 mm 6 m/s 732 mmHg 79%
    20:00 +3°C° 0 mm 5 m/s 731 mmHg 79%
    21:00 +2°C° 0 mm 5 m/s 731 mmHg 80%
    22:00 +3°C° 0 mm 4 m/s 731 mmHg 81%
    23:00 +3°C° 0 mm 4 m/s 731 mmHg 83%

    Demain, 14 Décembre, Samedi

    Heure Température Précipitation Vent Pression Humidité
    00:00 +3°C° 0 mm 4 m/s 730 mmHg 85%
    01:00 +2°C° 0.2 mm 5 m/s 731 mmHg 87%
    02:00 +2°C° 0.2 mm 5 m/s 731 mmHg 89%
    03:00 +2°C° 0.2 mm 5 m/s 731 mmHg 91%
    04:00 +2°C° 0.6 mm 6 m/s 732 mmHg 83%
    05:00 +2°C° 0.6 mm 7 m/s 732 mmHg 74%
    06:00 +1°C° 0.6 mm 8 m/s 733 mmHg 66%
    07:00 +1°C° 0 mm 8 m/s 733 mmHg 68%
    08:00 +2°C° 0 mm 7 m/s 734 mmHg 69%
    09:00 0°C° 0 mm 7 m/s 735 mmHg 71%
    10:00 +1°C° 0.2 mm 8 m/s 735 mmHg 68%
    11:00 +1°C° 0.2 mm 9 m/s 735 mmHg 65%
    12:00 +1°C° 0.2 mm 9 m/s 736 mmHg 62%
    13:00 +1°C° 0 mm 8 m/s 736 mmHg 63%
    14:00 +2°C° 0 mm 7 m/s 736 mmHg 64%
    15:00 +2°C° 0 mm 6 m/s 736 mmHg 65%
    16:00 +1°C° 0 mm 5 m/s 736 mmHg 66%
    17:00 +1°C° 0 mm 4 m/s 736 mmHg 68%
    18:00 +2°C° 0 mm 3 m/s 735 mmHg 70%
    19:00 +1°C° 0.8 mm 4 m/s 734 mmHg 75%
    20:00 +1°C° 0.8 mm 5 m/s 734 mmHg 80%
    21:00 +2°C° 0.8 mm 6 m/s 733 mmHg 86%
    22:00 +1°C° 0.5 mm 6 m/s 733 mmHg 87%
    23:00 +1°C° 0.5 mm 6 m/s 733 mmHg 89%

    Après-demain, 15 Décembre, Dimanche

    Heure Température Précipitation Vent Pression Humidité
    00:00 -1°C° 0.5 mm 6 m/s 733 mmHg 90%
    01:00 0°C° 0.1 mm 5 m/s 734 mmHg 89%
    02:00 0°C° 0.1 mm 5 m/s 735 mmHg 88%
    03:00 0°C° 0.1 mm 4 m/s 737 mmHg 87%
    04:00 -1°C° 0 mm 4 m/s 737 mmHg 86%
    05:00 0°C° 0 mm 3 m/s 738 mmHg 85%
    06:00 0°C° 0 mm 3 m/s 738 mmHg 83%
    07:00 +1°C° 0.4 mm 3 m/s 738 mmHg 85%
    08:00 0°C° 0.4 mm 4 m/s 738 mmHg 87%
    09:00 +1°C° 0.4 mm 5 m/s 739 mmHg 89%
    10:00 +2°C° 0.2 mm 5 m/s 739 mmHg 86%
    11:00 +2°C° 0.2 mm 5 m/s 739 mmHg 82%
    12:00 +3°C° 0.2 mm 6 m/s 740 mmHg 79%
    13:00 +3°C° 0.1 mm 5 m/s 740 mmHg 80%
    14:00 +2°C° 0.1 mm 5 m/s 740 mmHg 81%
    15:00 +3°C° 0.1 mm 4 m/s 740 mmHg 83%
    16:00 +2°C° 0.2 mm 5 m/s 740 mmHg 85%
    17:00 +2°C° 0.2 mm 5 m/s 740 mmHg 88%
    18:00 +1°C° 0.2 mm 5 m/s 739 mmHg 91%
    19:00 +1°C° 0.1 mm 5 m/s 740 mmHg 90%
    20:00 +1°C° 0.1 mm 5 m/s 740 mmHg 89%
    21:00 +1°C° 0.1 mm 4 m/s 741 mmHg 88%
    22:00 +1°C° 0 mm 4 m/s 741 mmHg 86%
    23:00 +1°C° 0 mm 5 m/s 741 mmHg 85%

    16 Décembre, Lundi

    Heure Température Précipitation Vent Pression Humidité
    00:00 +1°C° 0 mm 5 m/s 741 mmHg 84%
    01:00 +1°C° 0.1 mm 5 m/s 740 mmHg 83%
    02:00 +2°C° 0.1 mm 5 m/s 740 mmHg 83%
    03:00 +2°C° 0.1 mm 5 m/s 740 mmHg 82%
    04:00 +2°C° 0 mm 6 m/s 740 mmHg 81%
    05:00 +2°C° 0 mm 6 m/s 740 mmHg 81%
    06:00 +2°C° 0 mm 6 m/s 740 mmHg 80%
    07:00 +2°C° 0 mm 6 m/s 741 mmHg 79%
    08:00 +2°C° 0 mm 5 m/s 742 mmHg 79%
    09:00 +2°C° 0 mm 5 m/s 743 mmHg 79%
    10:00 +2°C° 0 mm 5 m/s 743 mmHg 77%
    11:00 +4°C° 0 mm 4 m/s 744 mmHg 76%
    12:00 +4°C° 0 mm 4 m/s 745 mmHg 75%
    13:00 +4°C° 0 mm 3 m/s 745 mmHg 77%
    14:00 +4°C° 0 mm 3 m/s 745 mmHg 79%
    15:00 +4°C° 0 mm 2 m/s 746 mmHg 81%
    16:00 +4°C° 0 mm 2 m/s 746 mmHg 82%
    17:00 +2°C° 0 mm 3 m/s 746 mmHg 84%
    18:00 +2°C° 0 mm 3 m/s 746 mmHg 86%
    19:00 +2°C° 0 mm 3 m/s 747 mmHg 87%
    20:00 +2°C° 0 mm 3 m/s 747 mmHg 89%
    21:00 +2°C° 0 mm 3 m/s 747 mmHg 90%
    22:00 +2°C° 0 mm 3 m/s 747 mmHg 90%
    23:00 +2°C° 0 mm 2 m/s 747 mmHg 91%

    17 Décembre, Mardi

    Heure Température Précipitation Vent Pression Humidité
    00:00 +2°C° 0 mm 2 m/s 747 mmHg 91%
    01:00 +2°C° 0 mm 2 m/s 748 mmHg 91%
    02:00 +2°C° 0 mm 2 m/s 748 mmHg 92%
    03:00 +2°C° 0 mm 2 m/s 748 mmHg 92%
    04:00 +2°C° 0 mm 2 m/s 748 mmHg 92%
    05:00 +1°C° 0 mm 2 m/s 748 mmHg 93%
    06:00 +1°C° 0 mm 2 m/s 748 mmHg 93%
    07:00 +1°C° 0 mm 3 m/s 748 mmHg 92%
    08:00 +1°C° 0 mm 3 m/s 749 mmHg 92%
    09:00 +1°C° 0 mm 3 m/s 749 mmHg 92%
    10:00 +2°C° 0 mm 3 m/s 749 mmHg 89%
    11:00 +3°C° 0 mm 4 m/s 749 mmHg 86%
    12:00 +4°C° 0 mm 4 m/s 749 mmHg 83%
    13:00 +4°C° 0 mm 4 m/s 750 mmHg 85%
    14:00 +4°C° 0 mm 4 m/s 750 mmHg 86%
    15:00 +4°C° 0 mm 4 m/s 750 mmHg 87%
    16:00 +3°C° 0 mm 3 m/s 751 mmHg 89%
    17:00 +3°C° 0 mm 3 m/s 752 mmHg 90%
    18:00 +2°C° 0 mm 3 m/s 752 mmHg 91%
    19:00 +2°C° 0 mm 3 m/s 753 mmHg 91%
    20:00 +3°C° 0 mm 2 m/s 754 mmHg 91%
    21:00 +3°C° 0 mm 2 m/s 754 mmHg 91%
    22:00 +3°C° 0 mm 2 m/s 755 mmHg 91%
    23:00 +2°C° 0 mm 2 m/s 755 mmHg 91%

    18 Décembre, Mercredi

    Heure Température Précipitation Vent Pression Humidité
    00:00 +2°C° 0 mm 2 m/s 756 mmHg 90%
    01:00 +2°C° 0 mm 2 m/s 756 mmHg 90%
    02:00 +2°C° 0 mm 2 m/s 756 mmHg 90%
    03:00 +2°C° 0 mm 2 m/s 757 mmHg 90%
    04:00 +2°C° 0 mm 2 m/s 757 mmHg 90%
    05:00 +1°C° 0 mm 3 m/s 757 mmHg 90%
    06:00 +1°C° 0 mm 3 m/s 757 mmHg 90%
    07:00 +1°C° 0 mm 3 m/s 757 mmHg 90%
    08:00 +1°C° 0 mm 3 m/s 758 mmHg 90%
    09:00 +1°C° 0 mm 3 m/s 758 mmHg 91%
    10:00 +1°C° 0 mm 4 m/s 758 mmHg 89%
    11:00 +3°C° 0 mm 4 m/s 758 mmHg 87%
    12:00 +3°C° 0 mm 5 m/s 758 mmHg 86%
    13:00 +3°C° 0 mm 5 m/s 757 mmHg 87%
    14:00 +3°C° 0 mm 5 m/s 757 mmHg 87%
    15:00 +3°C° 0 mm 5 m/s 757 mmHg 88%
    16:00 +3°C° 0 mm 5 m/s 756 mmHg 88%
    17:00 +2°C° 0 mm 5 m/s 756 mmHg 87%
    18:00 +2°C° 0 mm 5 m/s 756 mmHg 87%
    19:00 +2°C° 0 mm 5 m/s 756 mmHg 88%
    20:00 +2°C° 0 mm 5 m/s 756 mmHg 89%
    21:00 +2°C° 0 mm 5 m/s 756 mmHg 91%
    22:00 +2°C° 0 mm 5 m/s 756 mmHg 91%
    23:00 +2°C° 0 mm 5 m/s 756 mmHg 91%
    Voir plus